This is the latest recevied weather packets stored in our database for station/object K2MRS. If no packets are shown the sender has not sent any weather packets the latest 10 day(s).
| Time | Temp. | Humidity | Pressure | Rain* | Wind** | Luminosity | Snow |
|---|---|---|---|---|---|---|---|
| 1778026937 | 15° C | 78% | 1016.4 hPa | 0 mm | - | 167 W/m² | - |
| 1778026637 | 15° C | 79% | 1016.2 hPa | 0 mm | - | 172 W/m² | - |
| 1778026334 | 15° C | 78% | 1016.2 hPa | 0 mm | - | 192 W/m² | - |
| 1778026034 | 15.56° C | 79% | 1016.2 hPa | 0 mm | - | 211 W/m² | - |
| 1778025734 | 15.56° C | 79% | 1016.1 hPa | 0 mm | - | 234 W/m² | - |
| 1778025433 | 15.56° C | 79% | 1016.2 hPa | 0 mm | - | 244 W/m² | - |
| 1778025130 | 15.56° C | 79% | 1016.3 hPa | 0 mm | - | 214 W/m² | - |
| 1778024830 | 15.56° C | 79% | 1016.2 hPa | 0 mm | - | 204 W/m² | - |
| 1778024658 | 15.56° C | 78% | 1016.3 hPa | 0 mm | - | 193 W/m² | - |
| 1778024231 | 15.56° C | 78% | 1016.2 hPa | 0 mm | - | 211 W/m² | - |
| 1778023930 | 15.56° C | 78% | 1016.2 hPa | 0 mm | - | 204 W/m² | - |
| 1778023628 | 15.56° C | 79% | 1016.1 hPa | 0 mm | - | 221 W/m² | - |
| 1778023329 | 15.56° C | 79% | 1016.2 hPa | 0 mm | - | 225 W/m² | - |
| 1778023029 | 15.56° C | 79% | 1016.2 hPa | 0 mm | - | 225 W/m² | - |
| 1778022856 | 16.11° C | 79% | 1016.2 hPa | 0 mm | - | 199 W/m² | - |
| 1778022429 | 16.11° C | 78% | 1016.2 hPa | 0 mm | - | 185 W/m² | - |
| 1778022128 | 16.11° C | 78% | 1016.3 hPa | 0 mm | - | 185 W/m² | - |
| 1778021828 | 16.11° C | 77% | 1016.1 hPa | 0 mm | - | 236 W/m² | - |
| 1778021528 | 16.11° C | 77% | 1016.2 hPa | 0 mm | - | 229 W/m² | - |
| 1778021229 | 16.11° C | 77% | 1016.1 hPa | 0 mm | - | 209 W/m² | - |
| 1778020928 | 16.11° C | 78% | 1016.1 hPa | 0 mm | - | 236 W/m² | - |
| 1778020629 | 16.11° C | 77% | 1016.1 hPa | 0 mm | - | 297 W/m² | - |
| 1778020328 | 16.11° C | 77% | 1016.1 hPa | 0 mm | - | 271 W/m² | - |
| 1778020158 | 16.11° C | 78% | 1016.1 hPa | 0 mm | - | 279 W/m² | - |
| 1778019729 | 16.11° C | 76% | 1016.3 hPa | 0 mm | - | 234 W/m² | - |
* Rain latest hour (hover to see other rain measurements)
** Current wind speed in m/s (hover to see current wind gust speed)